Location: NovaLab Observatory
(42.8167°N, 71.2500°W)
Time: 00:43:49
(UTC-04:00)

Daily predictions for brighter satellites

Satellite Brightness Start Highest point End
(mag) Time Altitude Azimuth Time Altitude Azimuth Time Altitude Azimuth
Lacrosse 4 Rocket 4.5 00:09:41 12° NNE 00:09:41 12° NNE 00:10:02 10° NNE
Cosmos 2219 Rocket 4.1 00:23:50 22° NE 00:23:50 22° NE 00:25:47 10° NNE
Cosmos 2333 Rocket 4.0 00:39:46 25° NE 00:39:46 25° NE 00:42:09 10° NNE
Cosmos 2237 Rocket 4.1 00:41:33 23° NE 00:41:33 23° NE 00:43:43 10° NE
COSMOS 2428 4.2 00:55:04 32° N 00:55:04 32° N 00:58:26 10° NNE
ATLAS 3B R/B 3.4 01:08:52 55° NE 01:08:52 55° NE 01:14:28 10° NE
Cosmos 2278 Rocket 3.9 01:06:55 10° NNW 01:09:22 27° NNW 01:09:22 27° NNW
CZ-2C R/B 4.2 01:34:58 10° N 01:38:09 31° NNW 01:38:09 31° NNW
CZ-4C R/B 3.7 01:48:42 32° ENE 01:48:42 32° ENE 01:52:02 10° NE
Cosmos 2369 Rocket 4.4 01:51:41 10° N 01:55:51 21° NE 01:59:52 10° E
USA 238 DEB 3.9 02:01:31 67° NE 02:01:31 67° NE 02:07:32 10° NE
USA 238 3.9 02:01:38 66° NE 02:01:38 66° NE 02:07:38 10° NE
Cosmos 2219 Rocket 3.9 02:05:32 24° NW 02:05:32 24° NW 02:09:11 10° N
ATLAS CENTAUR R/B 3.9 02:07:05 10° N 02:09:58 21° NNE 02:09:58 21° NNE
SL-16 R/B 4.4 02:07:02 14° ESE 02:10:55 25° ENE 02:15:50 10° N
NOSS 3-2 (A) 4.3 02:17:13 42° E 02:17:13 42° E 02:22:22 10° NE
Resurs 1-4 Rocket 4.3 02:13:50 10° NE 02:16:56 15° E 02:17:37 15° E
SL-16 R/B 3.1 02:19:06 45° N 02:19:06 45° N 02:23:13 10° NNE
COSMOS 2455 4.1 02:19:04 31° NW 02:19:04 31° NW 02:24:00 10° NNE
Cosmos 2333 Rocket 3.9 02:21:46 25° NW 02:21:46 25° NW 02:25:52 10° N
Cosmos 2237 Rocket 3.8 02:23:22 26° NW 02:23:22 26° NW 02:27:23 10° N
Cosmos 1553 Rocket 4.4 02:24:02 55° E 02:24:02 55° E 02:29:39 10° NNE
Cosmos 1745 Rocket 4.5 02:20:48 10° N 02:27:02 54° ENE 02:27:33 53° E
NOSS 3-2 (C) 4.1 02:33:31 48° ESE 02:33:31 48° ESE 02:39:20 10° NE
BREEZE-M DEB (TANK) 3.8 02:40:47 75° SSW 02:41:26 84° SE 02:45:42 10° NE
Cosmos 1607 4.4 02:50:26 48° NW 02:50:26 48° NW 02:56:17 10° NNE
ATLAS 5 CENTAUR R/B 3.7 02:51:54 21° ESE 02:51:54 21° ESE 02:55:27 10° ENE
ATLAS 3B R/B 4.1 02:56:06 26° WNW 02:58:28 31° NW 03:04:54 10° NNE
Cosmos 1603 3.8 03:00:41 67° NNW 03:00:41 67° NNW 03:05:58 10° NNE
IRS-1C 4.2 02:59:34 10° NNE 03:04:28 74° N 03:04:28 74° N
In-Cosmos 22 Rocket 4.1 02:59:43 10° N 03:04:53 76° ENE 03:04:53 76° ENE
Cosmos 494 Rocket 4.3 03:10:38 56° ESE 03:10:49 57° ESE 03:15:59 10° NNE
Meteor 2-3 Rocket 3.7 03:13:15 10° N 03:19:02 86° E 03:20:00 64° SSE
Cosmos 1892 3.9 03:16:13 10° N 03:19:25 41° NE 03:19:25 41° NE
CZ-2D R/B 2.4 03:17:43 10° NNE 03:22:56 59° E 03:23:57 49° SE
Okean O Rocket 4.0 03:20:47 10° NE 03:23:59 19° E 03:26:40 12° SE
Cosmos 1302 Rocket 4.4 03:19:02 10° NNW 03:24:15 60° ENE 03:27:48 20° SE
Cosmos 2315 Rocket 4.3 03:22:51 36° SSE 03:25:21 61° E 03:31:32 10° NNE
CZ-3A R/B 4.3 03:21:47 18° WNW 03:25:22 29° NNW 03:29:10 10° NE
Cosmos 724 4.4 03:27:24 56° S 03:28:29 69° ESE 03:34:28 10° NE
Cosmos 1726 3.8 03:30:25 27° NNW 03:30:25 27° NNW 03:32:21 10° N
Spot 4 Rocket 4.0 03:24:42 10° N 03:29:51 69° WNW 03:29:55 69° WNW
IRS-1D 3.5 03:24:42 10° NNE 03:29:56 82° ESE 03:30:40 66° S
Cosmos 1943 3.0 03:29:24 69° SSW 03:30:07 89° ESE 03:35:49 10° NNE
CZ-4C R/B 3.3 03:33:52 28° WNW 03:35:07 31° NW 03:40:34 10° NNE
ADEOS 3.8 03:33:59 10° N 03:39:03 52° WNW 03:39:14 52° WNW
Cosmos 1331 Rocket 4.0 03:33:58 10° NNW 03:38:47 59° W 03:38:47 59° W
ARIANE 5 R/B 2.4 03:34:25 10° N 03:39:41 77° WNW 03:40:24 65° SW
Cosmos 2369 Rocket 2.0 03:34:49 10° NNW 03:40:24 68° WSW 03:41:29 55° SSW
Cosmos 389 Rocket 4.2 03:43:22 25° ESE 03:44:09 28° E 03:47:12 10° NNE
USA 234 3.2 03:39:00 10° NE 03:45:35 87° NW 03:47:57 43° SW
Cosmos 1184 Rocket 3.9 03:45:22 10° N 03:48:41 44° ENE 03:49:21 38° ESE
SeaSat 1 3.1 03:44:23 10° SE 03:49:12 56° ENE 03:54:03 10° NNW
ATLAS CENTAUR R/B 3.9 03:45:46 10° NW 03:46:09 12° NW 03:46:09 12° NW
Cosmos 1455 2.2 03:51:10 71° SE 03:51:24 75° E 03:55:19 10° NNE
SL-16 R/B 2.5 03:52:07 40° SSW 03:54:07 57° WSW 04:00:14 10° NNW
Resurs 1-4 Rocket 2.0 03:52:01 10° N 03:57:16 68° WNW 03:58:41 47° SW
Cosmos 2242 Rocket 3.7 03:59:17 55° WSW 03:59:40 57° W 04:04:11 10° N
SL-16 R/B 4.4 04:00:59 10° WNW 04:02:56 12° NW 04:05:01 10° NNW
Cosmos 1943 Rocket 2.2 03:57:48 10° NNW 04:03:31 81° ENE 04:09:09 10° SSE
Cosmos 1862 Rocket 3.5 04:03:46 39° S 04:05:20 80° E 04:09:46 10° N
CZ-2C R/B 4.2 04:02:06 10° SSE 04:06:27 57° ENE 04:10:48 10° N
NOSS 3-2 (A) 4.3 04:04:36 28° W 04:07:08 38° NW 04:13:25 10° NNE
ADEOS II 4.4 04:07:25 10° NE 04:11:28 22° E 04:15:30 10° SE
Cosmos 1709 Rocket 4.2 04:07:58 10° NNW 04:14:05 51° W 04:17:25 26° SSW
Cosmos 2263 4.4 04:08:45 10° NW 04:14:20 51° WSW 04:19:53 10° S
Cosmos 2251 Rocket 4.5 04:15:49 27° W 04:17:00 30° WNW 04:21:37 10° N
ERS-2 3.9 04:15:38 10° NNW 04:17:59 20° NW 04:17:59 20° NW
Cosmos 1408 3.5 04:16:25 10° N 04:20:05 51° E 04:23:44 10° SSE
CENTAUR R/B 2.6 04:19:17 24° SSW 04:23:08 76° ESE 04:30:00 10° NE
NOSS 3-2 (C) 4.4 04:20:58 23° W 04:24:08 37° NW 04:30:25 10° NNE
Cosmos 1825 2.5 04:23:38 10° N 04:27:26 65° E 04:31:11 10° SSE
SL-27 R/B 2.5 04:26:50 31° S 04:28:28 79° ESE 04:32:07 10° NNE
MOZ.5/SAFIR/RUBIN 5/SL-8 3.6 04:24:05 10° S 04:28:42 78° WSW 04:33:22 10° NNW
BREEZE-M DEB (TANK) 1.7 04:28:26 57° NW 04:28:47 79° NNE 04:31:15 10° ESE
Cosmos 1733 Rocket 3.4 04:26:18 10° NNW 04:30:27 43° W 04:32:11 29° SW
IRS-1C Rocket 4.0 04:25:34 10° NNE 04:30:52 86° WNW 04:35:13 16° SSW
ARGOS Delta rocket 3.6 04:28:29 10° N 04:32:51 62° WNW 04:35:21 24° SSW
Abrixas rocket 3.7 04:31:10 15° NW 04:33:34 35° N 04:36:42 10° E
Cosmos 1656 Rocket 3.9 04:29:30 10° NNW 04:34:56 69° ENE 04:40:19 10° SSE
ATLAS 5 CENTAUR R/B 2.2 04:33:28 28° WSW 04:35:54 54° NW 04:41:06 10° NNE
Cosmos 2074 Rocket 3.9 04:30:09 10° N 04:36:22 77° W 04:42:35 10° S
Cosmos 2327 Rocket 4.4 04:32:28 10° N 04:38:34 76° W 04:44:43 10° S
Cosmos 1782 Rocket 4.1 04:34:22 10° N 04:38:40 59° E 04:42:56 10° SSE
Cosmos 2184 Rocket 4.0 04:34:01 10° N 04:40:25 75° W 04:46:44 10° S
Cosmos 1862 3.2 04:36:55 10° N 04:40:53 78° W 04:44:51 10° S
UNKNOWN OBJECT B 3.9 04:40:27 10° NNW 04:43:30 25° WNW 04:44:16 23° W
PSLV R/B 3.4 04:47:18 27° WSW 04:48:56 60° S 04:52:19 10° ESE
Cosmos 1869 4.3 04:50:13 23° WSW 04:51:37 28° WNW 04:55:06 10° NNW
CZ-4B R/B 2.7 04:52:27 10° N 04:56:05 61° WNW 04:59:29 12° SSW
Cosmos 1610 Rocket 4.5 04:49:51 10° N 04:56:13 79° W 05:02:29 10° S
Cosmos 1933 3.6 04:55:33 14° SSW 04:58:58 50° WNW 05:02:59 10° N
Cosmos 1908 Rocket 3.8 04:55:00 10° NNW 04:59:12 47° W 05:03:22 10° SSW
Okean O Rocket 2.1 04:56:20 10° N 05:00:33 42° WNW 05:04:08 13° SW
BREEZE-M DEB (TANK) 3.6 04:59:15 18° SSW 05:01:02 50° SE 05:05:55 10° ENE
CZ-2D R/B 3.6 04:58:51 10° NNW 05:02:32 20° WNW 05:05:16 13° W
Cosmos 2221 Rocket 3.5 04:58:58 10° SSW 05:03:23 69° W 05:07:49 10° N
Okean-O 2.9 05:01:17 10° NNE 05:05:45 73° ESE 05:10:09 10° S
Cosmos 407 Rocket 3.8 05:02:26 10° S 05:07:36 69° ESE 05:12:51 10° NNE
Cosmos 2285 Rocket 4.2 05:04:49 10° NNW 05:11:01 52° WSW 05:17:10 10° S
Atlas Centaur 2 3.9 05:08:45 10° S 05:11:13 14° SSE 05:13:58 10° SE
COSMOS 2406 3.4 05:08:58 10° SW 05:14:38 57° WNW 05:20:19 10° NNE
Cosmos 1703 Rocket 4.0 05:13:31 10° SSW 05:17:47 43° WNW 05:22:05 10° N
Cosmos 389 Rocket 4.3 05:17:29 12° WSW 05:19:09 16° WNW 05:21:24 10° NNW
CZ-4B R/B 3.8 05:22:02 10° N 05:26:52 37° WNW 05:31:41 10° SW
SeaSat 1 3.7 05:23:26 10° SSW 05:27:01 20° WSW 05:30:37 10° WNW
Meteor PRIRODA 3.6 05:23:52 10° N 05:27:38 80° WNW 05:31:24 10° SSW
USA 234 4.3 05:22:16 10° NE 05:28:06 36° NNW 05:33:56 10° W
Cosmos 2151 Rocket 3.8 05:25:17 10° N 05:29:42 76° E 05:34:05 10° SSE
Geosat 4.1 05:27:10 10° NNE 05:32:11 66° WNW 05:37:08 10° SW
PSLV R/B 4.0 05:32:55 10° N 05:37:07 46° WNW 05:41:18 10° SW
Ariane Rocket 4.2 05:33:31 10° NNE 05:38:25 46° E 05:43:17 10° S
NOAA 6 4.4 05:37:01 10° NNE 05:42:11 71° ESE 05:47:20 10° S
